$Date,$Time,DM0201B,DM0203B,DM0205B,DM0207B,DM0209B
09/11/99,00:00:01,0,0,0,0,0
09/11/99,00:05:01,690,164,-15,29,948
09/11/99,00:10:01,619,164,-15,30,948
09/11/99,00:15:01,651,164,-15,29,948
09/11/99,00:20:01,635,162,-15,26,948
09/11/99,00:25:01,616,157,-15,26,948
09/11/99,00:30:01,592,165,-15,23,948
09/11/99,00:35:01,692,165,-15,25,948
09/11/99,00:40:01,725,165,-15,25,948
09/11/99,00:45:01,649,165,-15,23,948
09/11/99,00:50:01,638,159,-15,21,948
09/11/99,00:55:01,659,158,-15,21,948
09/11/99,01:00:01,726,158,-15,22,948
09/11/99,01:05:01,705,161,-15,20,948
09/11/99,01:10:01,730,173,-15,20,948
09/11/99,01:15:01,575,153,-15,17,948
09/11/99,01:20:01,616,170,-15,19,948
09/11/99,01:25:01,685,169,-15,19,948
09/11/99,01:30:01,714,169,-15,19,948
09/11/99,01:35:01,733,169,-15,21,948
09/11/99,01:40:01,743,172,-15,21,948
09/11/99,01:45:01,773,172,-15,21,948
09/11/99,01:50:01,785,172,-15,20,948
09/11/99,01:55:01,765,176,-15,21,948
09/11/99,02:00:01,664,164,-15,18,948
09/11/99,02:05:01,712,175,-15,20,948
09/11/99,02:10:01,673,173,-15,19,948
09/11/99,02:15:01,643,162,-15,16,948
09/11/99,02:20:01,688,174,-15,16,948
09/11/99,02:25:01,606,174,-15,14,948
09/11/99,02:30:01,652,173,-15,18,950
09/11/99,02:35:01,625,177,-15,14,950
09/11/99,02:40:01,704,177,-15,16,948
09/11/99,02:45:01,672,177,-15,14,950
09/11/99,02:50:01,704,177,-15,14,950
09/11/99,02:55:01,657,176,-15,11,950
09/11/99,03:00:01,681,176,-15,13,950
09/11/99,03:05:01,617,176,-15,11,950
09/11/99,03:10:01,624,186,-15,11,950
09/11/99,03:15:01,623,184,-15,11,950
09/11/99,03:20:01,754,184,-15,13,950
09/11/99,03:25:01,721,184,-15,13,950
09/11/99,03:30:01,710,181,-15,13,950
09/11/99,03:35:01,623,166,-15,11,950
09/11/99,03:40:01,570,176,-15,11,950
09/11/99,03:45:01,537,175,-15,11,950
09/11/99,03:50:01,655,175,-15,11,950
09/11/99,03:55:01,546,185,-15,7,950
09/11/99,04:00:01,526,174,-15,8,950
09/11/99,04:05:01,671,174,-15,8,950
09/11/99,04:10:01,678,174,-15,8,950
09/11/99,04:15:01,623,168,-15,8,950
09/11/99,04:20:01,553,172,-15,8,950
09/11/99,04:25:01,696,187,-15,8,950
09/11/99,04:30:01,698,175,-15,8,950
09/11/99,04:35:01,712,178,-15,8,950
09/11/99,04:40:01,601,178,-15,6,950
09/11/99,04:45:01,634,168,-15,4,950
09/11/99,04:50:01,617,168,-15,4,950
09/11/99,04:55:01,641,169,-15,4,950
09/11/99,05:00:01,667,179,-15,4,950
09/11/99,05:05:01,617,167,-15,2,950
09/11/99,05:10:01,644,180,-15,2,950
09/11/99,05:15:01,660,180,-15,2,950
09/11/99,05:20:01,636,180,-15,2,950
09/11/99,05:25:01,693,178,-15,2,950
09/11/99,05:30:01,764,178,-15,2,950
09/11/99,05:35:01,660,178,-15,2,950
09/11/99,05:40:01,691,178,-15,0,948
09/11/99,05:45:01,644,179,-15,0,950
09/11/99,05:50:01,734,179,-15,0,950
09/11/99,05:55:01,745,179,-15,0,948
09/11/99,06:00:01,686,166,-15,0,948
09/11/99,06:05:01,701,178,-15,0,948
09/11/99,06:10:01,707,178,-15,0,948
09/11/99,06:15:01,774,178,-15,0,948
09/11/99,06:20:01,775,178,-15,0,950
09/11/99,06:25:01,724,178,-15,0,950
09/11/99,06:30:01,721,178,-15,0,950
09/11/99,06:35:01,771,178,-15,0,950
09/11/99,06:40:01,776,178,-15,0,950
09/11/99,06:45:01,761,178,-15,0,950
09/11/99,06:50:01,709,178,-15,0,950
09/11/99,06:55:01,622,188,-15,0,950
09/11/99,07:00:01,646,182,-15,0,950
09/11/99,07:05:01,658,182,-15,0,950
09/11/99,07:10:01,671,183,-15,0,950
09/11/99,07:15:01,636,182,-15,0,950
09/11/99,07:20:01,716,185,-15,0,950
09/11/99,07:25:01,644,172,-15,0,950
09/11/99,07:30:01,622,179,-15,0,950
09/11/99,07:35:01,588,179,-15,0,950
09/11/99,07:40:01,627,183,-15,0,950
09/11/99,07:45:01,658,183,-15,0,950
09/11/99,07:50:01,608,178,-15,0,950
09/11/99,07:55:01,637,178,-15,0,950
09/11/99,08:00:01,597,178,-15,0,950
09/11/99,08:05:01,539,166,-15,0,950
09/11/99,08:10:01,621,168,-15,0,950
09/11/99,08:15:01,687,168,-15,0,950
09/11/99,08:20:01,626,167,-15,0,950
09/11/99,08:25:01,632,176,-15,0,950
09/11/99,08:30:01,624,176,-15,0,950
09/11/99,08:35:01,821,166,-15,0,950
09/11/99,08:40:01,629,177,-15,0,950
09/11/99,08:45:01,617,178,-15,0,950
09/11/99,08:50:01,737,178,-15,0,950
09/11/99,08:55:01,658,174,-15,0,950
09/11/99,09:00:01,652,174,-15,0,950
09/11/99,09:05:01,765,174,-15,0,950
09/11/99,09:10:01,626,174,-15,0,950
09/11/99,09:15:01,782,176,-15,0,950
09/11/99,09:20:01,734,177,-15,0,948
09/11/99,09:25:01,731,177,-15,0,950
09/11/99,09:30:01,783,172,-15,0,950
09/11/99,09:35:01,773,169,-15,0,950
09/11/99,09:40:01,799,179,-15,0,950
09/11/99,09:45:01,727,179,-15,0,950
09/11/99,09:50:01,725,179,-15,0,950
09/11/99,09:55:01,686,182,-15,0,950
09/11/99,10:00:01,830,183,-15,0,950
09/11/99,10:05:01,833,183,-13,0,950
09/11/99,10:10:01,847,183,-13,0,950
09/11/99,10:15:01,832,183,-13,0,949
09/11/99,10:20:01,948,183,-13,0,949
09/11/99,10:25:01,759,183,-13,0,949
09/11/99,10:30:01,794,183,-13,0,949
09/11/99,10:35:01,740,183,-13,0,949
09/11/99,10:40:01,718,183,-13,0,949
09/11/99,10:45:01,715,183,-13,0,949
09/11/99,10:50:01,829,183,-13,0,951
09/11/99,10:55:01,912,183,-13,0,949
09/11/99,11:00:01,871,183,-13,0,949
09/11/99,11:05:01,840,183,-13,0,949
09/11/99,11:10:01,753,183,-13,0,950
09/11/99,11:15:01,854,183,-13,0,950
09/11/99,11:20:01,764,183,-13,0,950
09/11/99,11:25:01,819,183,-13,0,950
09/11/99,11:30:01,765,193,-13,0,950
09/11/99,11:35:01,714,193,-13,0,950
09/11/99,11:40:01,789,193,-13,0,950
09/11/99,11:45:01,709,181,-13,0,950
09/11/99,11:50:01,735,192,-13,0,950
09/11/99,11:55:01,767,192,-13,0,950
09/11/99,12:00:01,746,192,-13,0,950
09/11/99,12:05:01,775,192,-13,0,950
09/11/99,12:10:01,838,192,-13,0,950
09/11/99,12:15:01,783,192,-13,0,950
09/11/99,12:20:01,746,192,-13,0,950
09/11/99,12:25:01,729,192,-13,0,950
09/11/99,12:30:01,671,192,-13,0,952
09/11/99,12:35:01,663,192,-13,0,949
09/11/99,12:40:01,807,192,-13,0,951
09/11/99,12:45:01,752,182,-13,0,951
09/11/99,12:50:01,741,192,-13,0,951
09/11/99,12:55:01,769,192,-13,0,951
09/11/99,13:00:01,734,182,-13,0,951
09/11/99,13:05:01,802,182,-13,0,951
09/11/99,13:10:01,762,194,-13,0,951
09/11/99,13:15:01,679,194,-13,0,951
09/11/99,13:20:01,741,184,-13,0,951
09/11/99,13:25:01,792,184,-13,0,951
09/11/99,13:30:01,844,194,-13,0,951
09/11/99,13:35:01,788,187,-13,0,951
09/11/99,13:40:01,824,187,-13,0,951
09/11/99,13:45:01,709,187,-13,0,951
09/11/99,13:50:01,840,197,-13,0,951
09/11/99,13:55:01,796,187,-13,0,951
09/11/99,14:00:01,819,187,-13,0,951
09/11/99,14:05:01,819,187,-13,0,951
09/11/99,14:10:01,768,187,-13,0,951
09/11/99,14:15:01,774,187,-13,0,951
09/11/99,14:20:01,830,187,-13,0,951
09/11/99,14:25:01,825,187,-13,0,951
09/11/99,14:30:01,785,187,-13,0,948
09/11/99,14:35:01,651,197,-13,0,950
09/11/99,14:40:01,735,197,-13,0,950
09/11/99,14:45:01,806,185,-13,0,950
09/11/99,14:50:01,826,193,-13,0,950
09/11/99,14:55:01,915,193,-13,0,950
09/11/99,15:00:01,787,193,-13,0,951
09/11/99,15:05:01,838,193,-13,0,951
09/11/99,15:10:01,791,193,-13,0,951
09/11/99,15:15:01,811,193,-13,0,951
09/11/99,15:20:01,842,193,-13,0,952
09/11/99,15:25:01,855,193,-13,0,950
09/11/99,15:30:01,847,193,-13,0,950
09/11/99,15:35:01,777,193,-13,0,951
09/11/99,15:40:01,875,182,-13,0,949
09/11/99,15:45:01,843,192,-13,0,949
09/11/99,15:50:01,824,192,-13,0,951
09/11/99,15:55:01,855,192,-13,0,949
09/11/99,16:00:01,954,192,-13,0,948
09/11/99,16:05:01,877,182,-13,0,950
09/11/99,16:10:01,863,193,-13,0,949
09/11/99,16:15:01,985,192,-13,0,949
09/11/99,16:20:01,803,182,-13,0,949
09/11/99,16:25:01,867,184,-13,0,949
09/11/99,16:30:01,952,184,-13,0,949
09/11/99,16:35:01,818,184,-13,0,949
09/11/99,16:40:01,981,184,-13,0,949
09/11/99,16:45:01,974,184,-13,0,949
09/11/99,16:50:01,874,184,-13,0,949
09/11/99,16:55:01,936,184,-13,0,949
09/11/99,17:00:01,837,184,-13,0,949
09/11/99,17:05:01,975,184,-13,0,949
09/11/99,17:10:01,902,181,-13,0,949
09/11/99,17:15:01,957,181,-13,0,949
09/11/99,17:20:01,947,181,-13,0,949
09/11/99,17:25:01,896,181,-13,0,949
09/11/99,17:30:01,831,179,-13,0,949
09/11/99,17:35:01,838,179,-13,0,949
09/11/99,17:40:01,832,179,-13,0,949
09/11/99,17:45:01,943,179,-13,0,949
09/11/99,17:50:01,993,179,-13,0,949
09/11/99,17:55:01,877,179,-13,0,949
09/11/99,18:00:01,855,176,-13,0,949
09/11/99,18:05:01,845,176,-13,0,951
09/11/99,18:10:01,892,176,-13,0,949
09/11/99,18:15:01,824,176,-13,0,951
09/11/99,18:20:01,887,175,-13,0,951
09/11/99,18:25:01,951,175,-13,0,951
09/11/99,18:30:01,802,176,-13,0,951
09/11/99,18:35:01,915,176,-13,0,951
09/11/99,18:40:01,875,176,-13,0,951
09/11/99,18:45:01,809,176,-13,0,951
09/11/99,18:50:01,763,176,-13,0,953
09/11/99,18:55:01,716,186,-13,0,953
09/11/99,19:00:01,673,176,-13,0,953
09/11/99,19:05:01,715,176,-13,0,953
09/11/99,19:10:01,816,176,-13,0,953
09/11/99,19:15:01,852,176,-13,0,953
09/11/99,19:20:01,738,176,-13,0,955
09/11/99,19:25:01,635,173,-13,0,955
09/11/99,19:30:01,659,173,-13,0,955
09/11/99,19:35:01,761,173,-13,0,955
09/11/99,19:40:01,687,181,-13,0,955
09/11/99,19:45:01,646,180,-13,0,955
09/11/99,19:50:01,579,180,-13,0,955
09/11/99,19:55:01,678,183,-13,0,955
09/11/99,20:00:01,743,181,-13,2,955
09/11/99,20:05:01,713,181,-13,2,955
09/11/99,20:10:01,688,181,-13,2,957
09/11/99,20:15:01,627,181,-13,2,955
09/11/99,20:20:01,575,171,-13,2,955
09/11/99,20:25:01,535,171,-13,2,955
09/11/99,20:30:01,618,182,-13,2,955
09/11/99,20:35:01,518,182,-13,2,955
09/11/99,20:40:01,617,182,-13,2,955
09/11/99,20:45:01,601,182,-13,2,957
09/11/99,20:50:01,642,169,-13,4,955
09/11/99,20:55:01,675,180,-13,4,955
09/11/99,21:00:01,705,173,-13,4,955
09/11/99,21:05:01,578,173,-13,4,955
09/11/99,21:10:01,653,183,-13,4,957
09/11/99,21:15:01,624,183,-13,6,957
09/11/99,21:20:01,527,171,-13,6,957
09/11/99,21:25:01,676,171,-13,6,955
09/11/99,21:30:01,596,171,-13,6,955
09/11/99,21:35:01,621,171,-13,6,957
09/11/99,21:40:01,604,171,-13,4,957
09/11/99,21:45:01,542,181,-13,6,957
09/11/99,21:50:01,629,180,-13,6,957
09/11/99,21:55:01,618,180,-13,10,957
09/11/99,22:00:01,652,180,-13,10,957
09/11/99,22:05:01,664,180,-13,12,955
09/11/99,22:10:01,735,168,-13,12,955
09/11/99,22:15:01,565,168,-13,14,955
09/11/99,22:20:01,594,168,-13,12,955
09/11/99,22:25:01,608,168,-13,12,955
09/11/99,22:30:01,597,178,-13,16,957
09/11/99,22:35:01,645,178,-13,21,955
09/11/99,22:40:01,650,180,-13,23,955
09/11/99,22:45:01,721,170,-13,25,955
09/11/99,22:50:01,703,170,-13,25,955
09/11/99,22:55:01,610,171,-13,23,955
09/11/99,23:00:01,672,171,-13,23,955
09/11/99,23:05:01,618,161,-13,21,955
09/11/99,23:10:01,658,172,-13,18,955
09/11/99,23:15:01,766,174,-13,25,955
09/11/99,23:20:01,715,174,-13,27,955
09/11/99,23:25:01,772,174,-13,31,955
09/11/99,23:30:01,711,162,-13,29,955
09/11/99,23:35:01,647,162,-13,29,955
09/11/99,23:40:01,651,163,-13,26,955
09/11/99,23:45:01,720,163,-13,27,955
09/11/99,23:50:01,727,163,-13,29,955
09/11/99,23:55:01,717,163,-13,29,955
09/12/99,00:00:01,738,165,-13,33,955
